Accueil
METAR-TAF:

METAR-TAF

Aéroports :

Plate-forme pétrolière

Euro, Pays-Bas

latitude: 51-59-52N, longitude: 3-16-30E, altitude: 18 m

Observation

Le bulletin a été fait il y a 24 minutes, à 18:55 UTC
Vent 22 kt de sud/sud-ouest
Température 14°C
Humidité 100%
Pression 1017 hPa
Visibilité: 0350 m
bruine

METAR: EHSA 201855Z AUTO 21022KT 0350 DZ ///////// 14/14 Q1017 W14/H13

Heure: 21:19 (19:19 UTC)


TAF: absent

Observations et prévisions météorologiques de plus de 4000 aéroports (messages METAR et TAF).

Les stations disponibles sont représentées par des disques jaunes et rouges sur la carte.

Passer la souris dessus pour voir le nom de la station.

Cliquer dessus pour voir les observations et prévisions météorologiques.

Pour changer de carte: cliquez sur les boutons verts avec une croix noire pour zoomer, sur le bouton vert avec un tiret pour effectuer un zoom arrière, ou sur les flèches vertes pour les cartes adjacentes.


METAR-TAF: